This demonstration page uses our WeatherBlox Daily Observations layout. Learn more.

Left ArrowRight Arrow

Hourly Observations for June 2, 2018

Temp ( °F °C ) Dew Point ( °F °C ) Humidity (%) Winds ( mph kmh ) Pressure ( in mb ) Visibility ( mi km ) Precip ( " mm )
12:53 am 00:53 Mostly Cloudy 51 10.6 48 8.9 89 89 SW 13 20 30.07 1018 10 16 0.00 0.00
1:53 am 01:53 Mostly Clear 50 10 44 6.7 80 80 WSW 13 20 30.07 1018 10 16 0.00 0.00
2:53 am 02:53 Clear 48 8.9 42 5.6 80 80 SW 16 26 30.08 1019 10 16 0.00 0.00
3:53 am 03:53 Clear 47 8.3 41 5 80 80 SW 14 22 30.09 1019 10 16 0.00 0.00
4:53 am 04:53 Clear 48 8.9 40 4.4 74 74 SW 20 31 30.09 1019 10 16 0.00 0.00
5:53 am 05:53 Sunny 48 8.9 40 4.4 74 74 SW 18 30 30.09 1019 10 16 0.00 0.00
6:53 am 06:53 Sunny 50 10 40 4.4 68 68 WSW 20 31 30.11 1020 10 16 0.00 0.00
7:53 am 07:53 Sunny 53 11.7 41 5 64 64 SW 21 33 30.13 1020 10 16 0.00 0.00
8:53 am 08:53 Sunny 57 13.9 42 5.6 58 58 WSW 20 31 30.13 1020 10 16 0.00 0.00
9:53 am 09:53 Sunny 64 17.8 41 5 43 43 W 20 31 30.12 1020 10 16 0.00 0.00
10:53 am 10:53 Sunny 67 19.4 38 3.3 35 35 NW 20 31 30.12 1020 10 16 0.00 0.00
11:53 am 11:53 Sunny 70 21.1 37 2.8 30 30 WNW 20 31 30.11 1020 10 16 0.00 0.00
12:53 pm 12:53 Sunny 71 21.7 38 3.3 30 30 WNW 16 26 30.10 1019 10 16 0.00 0.00
1:53 pm 13:53 Mostly Sunny 72 22.2 39 3.9 30 30 NW 17 28 30.09 1019 10 16 0.00 0.00
2:53 pm 14:53 Mostly Cloudy 72 22.2 38 3.3 29 29 WNW 16 26 30.09 1019 10 16 0.00 0.00
3:53 pm 15:53 Mostly Cloudy 75 23.9 37 2.8 25 25 W 20 31 30.09 1019 10 16 0.00 0.00
4:53 pm 16:53 Partly Cloudy 72 22.2 37 2.8 28 28 W 17 28 30.09 1019 10 16 0.00 0.00
5:53 pm 17:53 Mostly Sunny 71 21.7 37 2.8 29 29 WNW 15 24 30.08 1019 10 16 0.00 0.00
6:53 pm 18:53 Partly Cloudy 73 22.8 37 2.8 27 27 NW 14 22 30.07 1018 10 16 0.00 0.00
7:53 pm 19:53 Sunny 71 21.7 40 4.4 32 32 WNW 6 9 30.07 1018 10 16 0.00 0.00
8:53 pm 20:53 Sunny 67 19.4 43 6.1 42 42 Calm 30.08 1019 10 16 0.00 0.00
9:53 pm 21:53 Clear 55 12.8 46 7.8 72 72 S 7 11 30.09 1019 10 16 0.00 0.00
10:53 pm 22:53 Clear 53 11.7 45 7.2 74 74 S 6 9 30.10 1019 10 16 0.00 0.00
11:53 pm 23:53 Clear 51 10.6 44 6.7 77 77 SW 3 6 30.10 1019 10 16 0.00 0.00

Powered by AerisWeather